www.pogodaiklimat.ru

Погода и климат >> Архив погоды >> Беларусь >> Ошмяны


ПОГОДА в Ошмянах

  • Прогноз погоды в Ошмянах
  • Монитор погоды в Ошмянах

АРХИВ ПОГОДЫ в Ошмянах

Время (UTC), дата Ветер
(напр.,м/с)
 
Видим.   Явления Облачность Т
(С)
Тd
(С)
f
(%)
Тe
(С)
Тes
(С)
Комфортность P
(гПа)
Po
(гПа)
Тmin
(С)
Tmax
(С)
R
(мм)
R24
(мм)
S
(см)
15 12.08 ЮВ 3 20 км 8/3 600 м
[Cu med, cong Ac trans Ci fib]
+27.0 +15.0 48 +30 +30 душно 1013.0 989.0
18 12.08 ЮВ 1 20 км 8/3 600 м
[Sc Ac trans Ci fib]
+24.3 +15.5 58 +27 +27 жарко 1013.0 988.8 +27.4
21 12.08 Ю 3 9000 м слаб. ливневой дождь 9/6 600 м
[Cb cap Ac trans]
+22.5 +15.1 63 +26 +26 жарко 1012.0 987.7
00 13.08 штиль 0 14 км {ливн. осадки} 9/6 600 м
[Cb cap Ac trans]
+19.0 +15.3 79 +20 +20 1011.0 986.4
03 13.08 В 1 5000 м слаб. ливневой дождь 10/8 300 м
[Cb cap Ac As]
+17.9 +16.2 90 +19 +19 1010.0 985.4 +17.8
06 13.08 ЮЗ 3 5000 м слаб. ливневой дождь 10/10 300 м
[Cb cap]
+18.6 +18.1 97 +20 +20 1009.0 984.5 +17.7 5
09 13.08 З 3 20 км {ливн. осадки} 9/9 600 м
[Cb cap]
+20.3 +18.4 89 +24 +24 комфорт 1009.0 984.6
12 13.08 З 5 10 км {ливн. осадки} 9/9 600 м
[Cb cap]
+19.4 +17.2 87 +21 +21 комфорт 1011.0 986.5
15 13.08 СЗ 4 20 км 9/6 600 м
[Cu hum Ci sp]
+21.7 +14.1 62 +25 +25 комфорт 1012.0 987.6
18 13.08 ЮЗ 2 20 км 8/0
[Ac trans Cs]
+19.0 +13.8 72 +21 +21 комфорт 1013.0 988.4 +22.0 0.4
21 13.08 Ю 1 14 км 3/0
[Ac trans Ci fib]
+15.6 +13.4 87 +16 +16 1014.0 989.1
00 14.08 штиль 0 6000 м дымка ясно +13.0 +12.8 99 +12 +12 1014.0 988.8
03 14.08 штиль 0 4000 м дымка 9/0
[Ac trans Cs]
+11.8 +11.6 99 +11 +11 1015.0 989.7 +11.2
06 14.08 штиль 0 8000 м дымка 10/8 600 м
[Sc As op]
+14.4 +13.9 97 +14 +14 1015.0 989.9 +11.2
09 14.08 С 4 7000 м слаб. ливневой дождь 10/9 600 м
[Cb cap As trans]
+15.8 +11.8 77 +15 +15 1014.0 989.1
12 14.08 СВ 2 6000 м слаб. ливневой дождь 10/5 600 м
[Cb cap As op]
+15.0 +13.4 90 +15 +15 1013.0 988.0
15 14.08 СЗ 3 8000 м слаб. дождь 10/10 300 м
[Frnb Ns]
+14.7 +13.1 90 +14 +14 1014.0 989.0
18 14.08 штиль 0 9000 м слаб. дождь 10/10 300 м
[Frnb Ns]
+13.0 +12.4 96 +12 +12 1013.0 987.9 +17.2 11
21 14.08 З 2 9000 м в посл. час ливневой дождь 10/6 300 м
[Cb cap As op]
+12.6 +12.4 99 +12 +12 1014.0 988.8
00 15.08 З 2 9000 м дымка {ливн. осадки, дождь} 9/9 300 м
[St]
+12.4 +11.9 97 +11 +11 1015.0 989.7
03 15.08 ЮЗ 2 800 м туман 4/4 300 м
[St]
+10.5 +10.5 100 +9 +9 1015.0 989.6 +10.4
06 15.08 ЮЗ 3 20 км {туман} 4/4 300 м
[St]
+12.5 +11.6 94 +11 +13 1016.0 990.7 +10.0 1
09 15.08 СЗ 3 20 км 8/6 600 м
[Cu med, cong Ci fib]
+16.6 +9.3 62 +16 +16 1016.0 991.1
12 15.08 Ю 2 20 км 8/8 600 м
[Cu Sc Ci fib]
+18.8 +8.7 52 +20 +20 1016.0 991.2
15 15.08 СЗ 2 20 км 4/4 600 м
[Cu Sc]
+19.7 +7.4 45 +21 +23 комфорт 1015.0 990.3
18 15.08 штиль 0 20 км 3/3 600 м
[Sc]
+17.3 +9.9 62 +17 +17 1016.0 991.1 +20.3
21 15.08 штиль 0 10 км 3/0
[Ci sp]
+11.6 +11.1 97 +11 +11 1017.0 991.6
00 16.08 штиль 0 14 км 3/0
[Ci sp]
+9.3 +8.5 95 +8 +8 1017.0 991.4
03 16.08 штиль 0 10 км 3/0
[Ac lent]
+7.9 +7.5 97 +7 +7 1017.0 991.3 +7.8
06 16.08 штиль 0 20 км 3/0
[Ac lent Ci fib]
+15.0 +9.8 71 +15 +19 1017.0 991.9 +7.3
09 16.08 СЗ 1 20 км 8/5 600 м
[Cu med, cong Ci fib]
+19.8 +8.8 49 +22 +22 комфорт 1016.0 991.3
12 16.08 З 2 20 км 8/6 600 м
[Cu Sc Ci fib]
+21.6 +7.0 39 +22 +22 комфорт 1016.0 991.5
15 16.08 штиль 0 20 км 8/4 600 м
[Cu Sc Ci fib]
+20.2 +9.4 50 +21 +21 комфорт 1015.0 990.4
18 16.08 СВ 1 20 км 4/3 600 м
[Sc Ci fib]
+18.6 +10.9 61 +20 +20 1016.0 991.2 +22.3
21 16.08 штиль 0 14 км 3/0
[Ci sp]
+13.1 +11.8 92 +13 +13 1017.0 991.8
00 17.08 штиль 0 14 км ясно +10.5 +9.9 96 +10 +10 1017.0 991.5
03 17.08 штиль 0 10 км 3/0
[Ci fib]
+8.8 +8.3 97 +8 +8 1017.0 991.4 +8.6
06 17.08 штиль 0 20 км 1/0
[Ci fib]
+15.5 +11.5 77 +15 +21 1017.0 992.0 +8.3
09 17.08 СВ 1 20 км 3/3 600 м
[Cu med, cong]
+21.7 +10.2 48 +23 +33 комфорт 1016.0 991.5
12 17.08 СВ 1 20 км 4/3 600 м
[Cu med, cong Ci sp]
+23.2 +9.2 41 +25 +33 комфорт 1015.0 990.6
15 17.08 СВ 2 20 км 3/3 600 м
[Cu med, cong Ci sp]
+23.4 +9.0 40 +25 +27 комфорт 1014.0 989.7
18 17.08 СВ 2 20 км 3/0
[Ac lent]
+19.5 +11.3 59 +21 +21 комфорт 1015.0 990.4 +24.6
21 17.08 штиль 0 14 км ясно +14.8 +11.0 78 +15 +15 1015.0 989.9
00 18.08 штиль 0 14 км ясно +11.4 +10.6 95 +11 +11 1015.0 989.7
03 18.08 штиль 0 10 км 3/0
[Ci fib]
+9.7 +8.9 95 +9 +9 1014.0 988.5 +9.5
06 18.08 штиль 0 20 км 3/0
[Ac trans]
+15.6 +11.6 77 +15 +19 1014.0 989.0 +8.8
09 18.08 ЮВ 1 20 км 3/1 600 м
[Cu hum Ci fib]
+23.3 +11.0 46 +26 +35 жарко 1013.0 988.7
12 18.08 ЮЗ 1 20 км 4/4 600 м
[Cu hum]
+25.3 +10.3 39 +26 +35 жарко 1012.0 987.9
15 18.08 Ю 2 10 км 3 балла +25.4 +9.2 36 +26 +28 жарко 1012.0 987.9
18 18.08 ЮВ 1 10 км 3 балла +21.4 +12.8 58 +24 +24 комфорт 1012.0 987.6 +26.2
21 18.08 штиль 0 10 км 3 балла +17.9 +12.3 70 +18 +18 1013.0 988.3
00 19.08 штиль 0 10 км 10 баллов +16.4 +12.6 78 +16 +16 1013.0 988.1
03 19.08 ЮВ 1 10 км 10 баллов +17.6 +12.5 72 +19 +19 1013.0 988.3 +15.8
06 19.08 Ю 3 10 км 10 баллов +19.6 +14.4 72 +22 +22 комфорт 1013.0 988.4 +15.8
09 19.08 Ю 4 10 км 6 баллов +26.0 +17.1 58 +30 +33 душно 1013.0 989.0

 

Местоположение метеостанции Ошмяны (Гродненская область, Беларусь): широта 54.43 долгота 25.93 высота над уровнем моря 211 м.

В архиве по умолчанию представлена погода в Ошмянах за последнюю неделю. Архивные данные за месяц целиком и за предыдущие месяцы, начиная с января 2011 года, Вы можете получить, выбрав интересующий диапазон дат из раскрывающегося списка и нажав кнопку "Ввод!".


*Определитесь, кто Вы:
робот инопланетянин человек

Внимание! Время в таблицах - всемирное. Для получения местного времени необходимо прибавить поправку, которая равна 3 ч.

Смотрите также архив погоды в соседних городах и на ближайших метеорологических станциях:

Погода в Вильнюсе (Литва) (47 км)
Погода в Воложине (Минская область, Беларусь) (54 км)
Погода в Вилейке (Минская область, Беларусь) (69 км)
Погода в Лиде (Гродненская область, Беларусь) (71 км)
Погода в Лынтупах (Витебская область, Беларусь) (73 км)
Погода в Нарочи (Минская область, Беларусь) (75 км)
Погода в Швенчёнисе (Литва) (82 км)
Погода в Варена (Литва) (92 км)
Погода в Новогрудке (Гродненская область, Беларусь) (92 км)
Погода в Столбцах (Минская область, Беларусь) (118 км)

Пояснения к столбцам:

Ветер - указаны скорость ветра в м/с - средняя за 10 мин, порывы в срок и между сроками (в фигурных скобках) и направление, откуда дует ветер: С - северный, СВ - северо-восточный, В - восточный, ЮВ - юго-восточный, Ю - южный, ЮЗ - юго-западный, З - западный, СЗ - северо-западный.
Видимость - горизонтальная дальность видимости в метрах или километрах. При видимости от 1 до 10 км при отсутствии осадков обычно наблюдается дымка, при ухудшении видимости до 1 км и менее - туман. В сухую погоду видимость может ухудшаться дымом, пылью или мглою.
Явления - указаны атмосферные явления, наблюдавшиеся в срок или в последний час перед сроком; фигурными скобками обозначены явления, наблюдавшиеся между сроками (за 1-3 часа до срока); квадратными скобками обозначены град или гололедные отложения с указанием их диаметра в мм.
Облачность - указаны через наклонную черту общая и нижняя облачность в баллах и высота нижней границы облаков в метрах; квадратными скобками обозначены формы облаков: Ci - перистые, Cs - перисто-слоистые, Cc - перисто-кучевые, Ac - высококучевые, As - высокослоистые, Sc - слоисто-кучевые, Ns - слоисто-дождевые, Cu - кучевые, Cb - кучево-дождевые. Подробнее классификацию облаков см. в Атласе облаков (PDF).
T - Температура воздуха - температура, измеренная на высоте 2 м над землей.
Td - Температура точки росы - температура, при понижении до которой содержащийся в воздухе водяной пар достигнет насыщения.
f - Относительная влажность воздуха - влажноcть воздуха, измеренная на высоте 2 м над землей.
Te - Эффективная температура - температура, которую ощущает одетый по сезону человек в тени. Характеристика душности погоды. При расчете учитывается влияние влажности воздуха и скорости ветра на теплоощущения человека.
Tes - Эффективная температура на солнце - температура, которую ощущает человек, с поправкой на солнечный нагрев. Характеристика знойности погоды. Зависит от высоты солнца над горизонтом, облачности и скорости ветра. Ночью, в пасмурную погоду, а также при ветре 12 м/с и более поправка равна нулю.
P - Атмосферное давление - приведенное к уровню моря атмосферное давление.
Po - Атмосферное давление - измеренное на уровне метеостанции атмосферное давление.
Tmin - Минимальная температура - минимум температуры воздуха на высоте 2 м над землей.
Tmax - Максимальная температура - максимум температуры воздуха на высоте 2 м над землей.
R - Количество осадков - Количество выпавших осадков за период времени, мм. При наведении курсора мыши на число - период времени, за который выпало указанное количество осадков.
R24 - Количество осадков - Количество выпавших осадков за 24 часа, мм.
S - Снежный покров - Высота снежного покрова, см. При наведении курсора мыши на число - состояние снежного покрова и степень покрытия местности в баллах.